Weather in Popovskaya

Russia / Moscow Oblast     55°10′33″N   39°16′37″E
temp.,
°C
wind,
m/s
gust,
m/s
humid.,
%
clouds,
%
prec.,
mm/h
press.,
hPa
HPBL,
m
19 january, wed
wed1900:00−12nnw4109437 0.0 1015259
03:00−16nw269963 0.0 101682
06:00−16nw269963 0.0 101783
09:00−19nw2210078 0.0 101836
12:00−12wnw129261 0.0 1018124
15:00−11ssw23955 0.0 101783
18:00−17sw239967 0.0 101744
21:00−16ssw369631 0.0 101583
20 january, thu
thu2000:00−13s3109171 0.0 1014172
03:00−10s41295100 0.0 1013276
06:00−9s5119598 0.0 1011320
09:00−9s51295100 0.1 1010334
12:00−7s61394100 0.1 1009399
15:00−6s61393100 0.1 1007535
18:00−8s61593100 0.1 1006487
21:00−8s61593100 0.1 1006503
21 january, fri
fri2100:00−9s61493100 0.3 1005490
03:00−8s61495100 1.6 1005515
06:00−7sse51295100 1.3 1004499
09:00−7sse51195100 2.9 1004515
12:00−6se51195100 1.6 1003591
15:00−6se51195100 3.1 1001602
18:00−6se51295100 0.9 1001557
21:00−6se41196100 1.4 1001490
22 january, sat
sat2200:00−5sse3796100 1.9 1002378
03:00−12sse369861 2.3 100486
06:00−10se399687 0.1 1006260
09:00−10se4109599 0.3 1009296
12:00−8se4994100 0.1 1011335
15:00−7ese4794100 0.1 1013360
18:00−9ese3896100 0.1 1016237
21:00−11ese3698100 0.1 1018137
23 january, sun
sun2300:00−15ene2210099 0.0 102114
03:00−16ene2210085 0.1 102322
06:00−16ene1110084 0.0 102415
09:00−18ne1110083 0.1 102713
12:00−11nne119494 0.1 1028123
15:00−10n239685 0.1 1030146
18:00−17n2210092 0.0 103210
21:00−19n22100100 0.0 103318